Location: Taukkyan
(23.1052°N, 94.0030°E)
Time: 22:37:50
(UTC+00:00)

Cosmos 1892 Rocket - Pass Details

Date: 06 July 2020
Orbit: 607 x 632 km, 82.5° (Epoch: 05 August)

Event Time Altitude Azimuth Distance (km) Brightness Sun altitude
Rises 12:54:59 0° 183° (S) 2,848 6.7 -5.2°
Reaches altitude 10° 12:57:11 10° 182° (S) 1,947 5.9 -5.7°
Maximum altitude 13:01:30 85° 94° (E) 613 3.5 -6.5°
Drops below altitude 10° 13:05:50 10° 6° (N) 1,960 6.4 -7.4°
Sets 13:08:03 0° 6° (N) 2,869 7.3 -7.9°
